Tracking 19709 objects as of 17-Jun-2019
HD Live streaming from Space Station
objects crossing your sky now

COSMOS 2299

Track COSMOS 2299 now!
10-day predictions
COSMOS 2299 is classified as:


NORAD ID: 23441
Int'l Code: 1994-086A
Perigee: 1,409.9 km
Apogee: 1,419.7 km
Inclination: 82.6 °
Period: 113.9 minutes
Semi major axis: 7785 km
RCS: 1.0821 m2 (large)
Launch date: December 26, 1994
Source: Commonwealth of Independent States (former USSR) (CIS)
Launch site: PLESETSK MISSILE AND SPACE COMPLEX (PKMTR)
aabbcc
Your satellite tracking list
Your tracking list is empty




NASA's NSSDC Master Catalog

Two Line Element Set (TLE):
1 23441U 94086A   19167.94581745 -.00000004 +00000-0 -81560-4 0  9998
2 23441 082.5678 134.9479 0006279 247.6459 112.3967 12.63719219128696
Source of the keplerian elements: AFSPC